Weather History for Lytton, BC

Change the Weather History Date:

Friday, February 22, 2013

  Actual Average Record
Temperature  
Mean Temperature 40 °F -  
Max Temperature 46 °F 42 °F 55 °F (2012)
Min Temperature 35 °F 26 °F 21 °F (2001)
Degree Days  
Heating Degree Days 24    
Moisture  
Dew Point -    
Average Humidity    
Maximum Humidity    
Minimum Humidity    
Precipitation  
Precipitation 0.12 in - - ()
Sea Level Pressure  
Sea Level Pressure 29.54 in    
Wind  
Wind Speed 19 mph ()    
Max Wind Speed 28 mph    
Max Gust Speed 44 mph    
Visibility 8.7 miles    
Events      
Averages and records for this station are not official NWS values.
T = Trace of Precipitation, MM = Missing Value Source: Averaged Metar Reports

Daily Weather History Graph

Daily Weather History Graph

Search for Another Location

Airport:

Trip Planner

Search our weather history database for the weather conditions in past years. The results will help you decide how hot, cold, wet, or windy it might be!

Date:

Astronomy

Feb. 22, 2013 Rise Set
Actual Time 7:03 AM PST 5:37 PM PST
Civil Twilight 6:30 AM PST 6:10 PM PST
Nautical Twilight 5:52 AM PST 6:47 PM PST
Astronomical Twilight 5:15 AM PST 7:25 PM PST
Moon 2:42 PM PST (2/22) 5:04 AM PST (2/22)
Length of Visible Light 11h 39m
Length of Day
10h 33m
Waxing Gibbous, 91% of the Moon is Illuminated
Feb 22
Waxing Gibbous
Feb 25
Full
Mar 4
Last Quarter
Mar 11
New
Mar 19
First Quarter

Hourly Weather History & Observations

Time (PST) Temp. Windchill Dew Point Humidity Pressure Visibility Wind Dir Wind Speed Gust Speed Precip Events Conditions
12:00 AM 39.2 °F 28.5 °F - N/A% 29.83 in 9.0 mi South 24.2 mph 34.5 mph N/A   Clear
1:00 AM 40 °F - - % 29.82 in 9 mi South 21.9 mph - -  
1:00 AM 39.2 °F 29.0 °F - N/A% 29.82 in 9.0 mi South 21.9 mph 29.9 mph N/A   Clear
2:00 AM 41.0 °F 31.9 °F - N/A% 29.80 in 9.0 mi South 19.6 mph 28.8 mph N/A   Clear
3:00 AM 41.0 °F 30.9 °F - N/A% 29.78 in 9.0 mi SSW 24.2 mph 35.7 mph N/A   Clear
4:00 AM 40 °F - - % 29.74 in 9 mi SSW 20.7 mph - -  
4:00 AM 41.0 °F 31.6 °F - N/A% 29.74 in 9.0 mi SSW 20.7 mph 34.5 mph N/A   Clear
5:00 AM 39.2 °F 29.0 °F - N/A% 29.70 in 9.0 mi SSW 21.9 mph 38.0 mph N/A   Clear
6:00 AM 39.2 °F 28.7 °F - N/A% 29.65 in 9.0 mi SSW 23.0 mph 43.7 mph N/A   Clear
7:00 AM 40 °F - - % 29.63 in 9 mi SSW 21.9 mph - -  
7:00 AM 39.2 °F 29.6 °F - N/A% 29.63 in 9.0 mi SSW 19.6 mph 35.7 mph N/A   Clear
8:00 AM 41.0 °F 31.9 °F - N/A% 29.59 in 9.0 mi SW 19.6 mph 28.8 mph N/A   Partly Cloudy
9:00 AM 42.8 °F 36.2 °F - N/A% 29.55 in 9.0 mi SW 12.7 mph 27.6 mph N/A   Scattered Clouds
10:00 AM 45 °F - - % 29.55 in 9 mi SSW 13.8 mph - -  
10:00 AM 44.6 °F 39.2 °F - N/A% 29.55 in 9.0 mi SSW 10.4 mph 28.8 mph N/A   Mostly Cloudy
11:00 AM 46.4 °F 39.5 °F - N/A% 29.51 in 9.0 mi SSW 17.3 mph 34.5 mph N/A   Mostly Cloudy
11:57 AM 42.8 °F 34.5 °F - N/A% 29.47 in 9.0 mi SSW 18.4 mph 33.4 mph N/A   Partly Cloudy
12:00 PM 42.8 °F 34.8 °F - N/A% 29.49 in 9.0 mi SSW 17.3 mph 28.8 mph N/A   Partly Cloudy
12:47 PM 42.8 °F 33.3 °F - N/A% 29.43 in 9.0 mi SSW 24.2 mph 35.7 mph N/A   Clear
1:00 PM 42 °F - - % 29.44 in 9 mi SSW 23.0 mph - -  
1:00 PM 42.8 °F 34.3 °F - N/A% 29.44 in 9.0 mi SSW 19.6 mph 36.8 mph N/A   Clear
1:05 PM 42.8 °F 34.5 °F - N/A% 29.43 in 9.0 mi SSW 18.4 mph 33.4 mph N/A   Clear
2:00 PM 42.8 °F 34.0 °F - N/A% 29.43 in 9.0 mi SSW 20.7 mph 33.4 mph N/A   Clear
2:16 PM 42.8 °F 32.7 °F - N/A% 29.42 in 9.0 mi SSW 27.6 mph 36.8 mph N/A   Partly Cloudy
2:36 PM 42.8 °F 34.5 °F - N/A% 29.42 in 9.0 mi SSW 18.4 mph 32.2 mph N/A   Partly Cloudy
2:45 PM 42.8 °F 32.9 °F - N/A% 29.42 in 9.0 mi SSW 26.5 mph 39.1 mph N/A   Partly Cloudy
3:00 PM 42.8 °F 33.1 °F - N/A% 29.44 in 9.0 mi SSW 25.3 mph 35.7 mph N/A   Partly Cloudy
4:00 PM 42 °F - - % 29.43 in 9 mi South 23.0 mph - -  
4:00 PM 42.8 °F 32.9 °F - N/A% 29.43 in 9.0 mi South 26.5 mph 38.0 mph N/A   Partly Cloudy
4:12 PM 42.8 °F 32.7 °F - N/A% 29.40 in 9.0 mi South 27.6 mph 39.1 mph N/A   Partly Cloudy
4:17 PM 42.8 °F 33.1 °F - N/A% 29.40 in 9.0 mi South 25.3 mph 39.1 mph N/A   Partly Cloudy
4:36 PM 41.0 °F 30.5 °F - N/A% 29.41 in 9.0 mi South 26.5 mph 36.8 mph N/A   Clear
4:43 PM 41.0 °F 30.9 °F - N/A% 29.41 in 9.0 mi South 24.2 mph 35.7 mph N/A   Clear
5:00 PM 41.0 °F 31.9 °F - N/A% 29.44 in 9.0 mi South 19.6 mph 33.4 mph N/A   Clear
5:20 PM 39.2 °F 29.0 °F - N/A% 29.44 in 9.0 mi South 21.9 mph 33.4 mph N/A   Clear
5:30 PM 39.2 °F 30.5 °F - N/A% 29.46 in 6.0 mi South 16.1 mph 29.9 mph N/A   Mostly Cloudy
5:39 PM 37.4 °F 28.2 °F - N/A% 29.46 in 4.0 mi SSW 16.1 mph 27.6 mph N/A   Overcast
6:00 PM 35.6 °F 26.6 °F - N/A% 29.51 in 5.0 mi South 13.8 mph 23.0 mph N/A   Mostly Cloudy
6:08 PM 35.6 °F 25.9 °F - N/A% 29.49 in 6.0 mi South 16.1 mph 21.9 mph N/A   Overcast
6:29 PM 35.6 °F 29.2 °F - N/A% 29.48 in 9.0 mi SSE 8.1 mph - N/A   Scattered Clouds
6:32 PM 35.6 °F 29.9 °F - N/A% 29.48 in 9.0 mi South 6.9 mph - N/A   Scattered Clouds
7:00 PM 37 °F - - % 29.50 in 9 mi South 12.7 mph - -  
7:00 PM 37.4 °F 30.3 °F - N/A% 29.50 in 9.0 mi SSW 10.4 mph 20.7 mph N/A   Clear
8:00 PM 39.2 °F 31.6 °F - N/A% 29.54 in 9.0 mi SSW 12.7 mph 19.6 mph N/A   Clear
9:00 PM 39.2 °F 28.7 °F - N/A% 29.55 in 9.0 mi SSW 23.0 mph 33.4 mph N/A   Clear
10:00 PM 40 °F - - % 29.58 in 9 mi SSW 17.3 mph - -  
10:00 PM 39.2 °F 30.2 °F - N/A% 29.58 in 9.0 mi SW 17.3 mph 28.8 mph N/A   Clear
11:00 PM 39.2 °F 30.8 °F - N/A% 29.61 in 9.0 mi SSW 15.0 mph 28.8 mph N/A   Clear